WMT6JU LIMC-LUKK

Flight info

Callsign WMT6JU
Flight time N/A
Altitude 38000
Route OSKOR DCT NEVNI DCT NOBMI DCT KUBUD/N0439F370 DCT VALLU DCT BEDOX DCT KOPRY DCT MAVIR DCT DEGET DCT BUSES
Aircraft A320/M-SDE1E2E3FGIJ1J4RWXY/LB1

Departure

Time 2026-05-01 13:20
Airport Milan Malpensa International Airport (LIMC)

Arrival

Time N/A
Airport Chişinău International Airport (LUKK)
Time Latitude Longitude Altitude Speed Heading
2026-05-01 12:57 45.63048 8.71832 738 ft 0 kts 79°
2026-05-01 13:10 45.63048 8.71835 741 ft 2 kts 79°
2026-05-01 13:10 45.63056 8.71910 741 ft 10 kts 94°
2026-05-01 13:10 45.63003 8.71969 741 ft 11 kts 118°
2026-05-01 13:11 45.62944 8.72061 741 ft 15 kts 165°
2026-05-01 13:11 45.62828 8.72092 741 ft 18 kts 166°
2026-05-01 13:11 45.62699 8.72127 740 ft 19 kts 172°
2026-05-01 13:11 45.62566 8.72166 739 ft 20 kts 169°
2026-05-01 13:12 45.62427 8.72202 741 ft 21 kts 168°
2026-05-01 13:12 45.62281 8.72241 741 ft 22 kts 171°
2026-05-01 13:12 45.62132 8.72283 740 ft 22 kts 166°
2026-05-01 13:12 45.61979 8.72327 741 ft 23 kts 170°
2026-05-01 13:13 45.61830 8.72367 742 ft 20 kts 169°
2026-05-01 13:13 45.61689 8.72405 742 ft 21 kts 170°
2026-05-01 13:13 45.61541 8.72447 742 ft 23 kts 166°
2026-05-01 13:13 45.61380 8.72492 741 ft 24 kts 170°
2026-05-01 13:14 45.61206 8.72542 741 ft 25 kts 169°
2026-05-01 13:14 45.61064 8.72533 741 ft 16 kts 253°
2026-05-01 13:14 45.61042 8.72388 740 ft 16 kts 261°
2026-05-01 13:14 45.60980 8.72291 742 ft 15 kts 176°
2026-05-01 13:15 45.60871 8.72324 742 ft 17 kts 168°
2026-05-01 13:15 45.60745 8.72357 741 ft 20 kts 170°
2026-05-01 13:15 45.60641 8.72468 742 ft 21 kts 101°
2026-05-01 13:15 45.60630 8.72614 742 ft 23 kts 96°
2026-05-01 13:16 45.60607 8.72912 742 ft 26 kts 96°
2026-05-01 13:16 45.60588 8.73167 742 ft 22 kts 95°
2026-05-01 13:16 45.60666 8.73291 741 ft 19 kts 21°
2026-05-01 13:17 45.61095 8.73352 741 ft 24 kts 349°
2026-05-01 13:17 45.61267 8.73303 742 ft 26 kts 350°
2026-05-01 13:18 45.61538 8.73228 742 ft 16 kts 348°
2026-05-01 13:18 45.61609 8.73237 741 ft 10 kts 50°
2026-05-01 13:18 45.61626 8.73346 741 ft 13 kts 79°
2026-05-01 13:18 45.61613 8.73475 740 ft 15 kts 112°
2026-05-01 13:19 45.61584 8.73625 741 ft 17 kts 85°
2026-05-01 13:19 45.61662 8.73726 737 ft 18 kts 351°
2026-05-01 13:19 45.62582 8.73473 742 ft 128 kts 349°
2026-05-01 13:20 45.63614 8.73194 778 ft 170 kts 349°
2026-05-01 13:20 45.64810 8.72863 1277 ft 178 kts 351°
2026-05-01 13:20 45.66048 8.73099 1798 ft 193 kts 32°
2026-05-01 13:21 45.66916 8.76738 2993 ft 218 kts 96°
2026-05-01 13:21 45.66740 8.78910 3725 ft 228 kts 97°
2026-05-01 13:21 45.66533 8.81178 4626 ft 231 kts 97°
2026-05-01 13:21 45.66323 8.83438 5506 ft 234 kts 97°
2026-05-01 13:22 45.66108 8.85759 6386 ft 237 kts 97°
2026-05-01 13:22 45.65892 8.88115 7222 ft 241 kts 97°
2026-05-01 13:22 45.65672 8.90503 8076 ft 244 kts 97°
2026-05-01 13:22 45.65447 8.92922 8932 ft 247 kts 97°
2026-05-01 13:23 45.65218 8.95367 9774 ft 250 kts 97°
2026-05-01 13:23 45.64986 8.97853 10591 ft 254 kts 97°
2026-05-01 13:23 45.64756 9.00362 11392 ft 256 kts 97°
2026-05-01 13:23 45.64589 9.02906 12136 ft 262 kts 89°
2026-05-01 13:24 45.64594 9.05585 12411 ft 285 kts 88°
2026-05-01 13:24 45.64616 9.08533 12650 ft 308 kts 88°
2026-05-01 13:24 45.64643 9.11704 12921 ft 328 kts 88°
2026-05-01 13:25 45.64692 9.18349 14289 ft 338 kts 88°
2026-05-01 13:25 45.64710 9.21715 14952 ft 340 kts 88°
2026-05-01 13:25 45.64725 9.25116 15598 ft 343 kts 88°
2026-05-01 13:25 45.64740 9.28542 16248 ft 346 kts 88°
2026-05-01 13:26 45.64753 9.31946 16888 ft 349 kts 88°
2026-05-01 13:26 45.64766 9.35426 17540 ft 352 kts 88°
2026-05-01 13:26 45.64780 9.38934 18056 ft 355 kts 88°
2026-05-01 13:26 45.64791 9.42468 18678 ft 358 kts 87°
2026-05-01 13:27 45.64802 9.46035 19221 ft 361 kts 87°
2026-05-01 13:27 45.64815 9.49640 19772 ft 364 kts 87°
2026-05-01 13:27 45.64835 9.56957 21035 ft 371 kts 87°
2026-05-01 13:28 45.64846 9.64355 22040 ft 378 kts 86°
2026-05-01 13:28 45.64855 9.68128 22524 ft 381 kts 86°
2026-05-01 13:29 45.64879 9.75779 23519 ft 388 kts 86°
2026-05-01 13:29 45.64902 9.83558 24463 ft 394 kts 86°
2026-05-01 13:30 45.64922 9.99290 26242 ft 402 kts 86°
2026-05-01 13:31 45.64925 10.07316 27082 ft 406 kts 86°
2026-05-01 13:31 45.64910 10.19529 28260 ft 413 kts 86°
2026-05-01 13:32 45.64890 10.27762 29119 ft 416 kts 86°
2026-05-01 13:33 45.64844 10.40198 30314 ft 422 kts 86°
2026-05-01 13:33 45.64821 10.48638 31000 ft 426 kts 84°
2026-05-01 13:34 45.65744 10.56961 31665 ft 425 kts 75°
2026-05-01 13:34 45.66964 10.65232 32574 ft 423 kts 75°
2026-05-01 13:35 45.68146 10.73377 33571 ft 419 kts 75°
2026-05-01 13:35 45.68735 10.77453 34057 ft 418 kts 75°
2026-05-01 13:35 45.69906 10.85579 34888 ft 417 kts 75°
2026-05-01 13:36 45.70490 10.89642 35215 ft 418 kts 75°
2026-05-01 13:36 45.71075 10.93713 35532 ft 418 kts 75°
2026-05-01 13:36 45.72244 11.01893 36132 ft 420 kts 75°
2026-05-01 13:37 45.72820 11.05939 36491 ft 421 kts 75°
2026-05-01 13:37 45.73213 11.08709 36732 ft 420 kts 75°
2026-05-01 13:37 45.73979 11.14140 37181 ft 421 kts 75°
2026-05-01 13:37 45.74558 11.18252 37462 ft 422 kts 75°
2026-05-01 13:38 45.75718 11.26494 38019 ft 423 kts 75°
2026-05-01 13:38 45.76298 11.30635 38263 ft 425 kts 75°
2026-05-01 13:39 45.77454 11.38955 38359 ft 427 kts 75°
2026-05-01 13:39 45.78600 11.47248 38357 ft 428 kts 75°
2026-05-01 13:40 45.79748 11.55612 38364 ft 427 kts 75°
2026-05-01 13:40 45.80890 11.63950 38360 ft 426 kts 75°
2026-05-01 13:41 45.82025 11.72290 38353 ft 426 kts 75°
2026-05-01 13:41 45.83166 11.80632 38359 ft 427 kts 75°
2026-05-01 13:42 45.84291 11.88935 38398 ft 427 kts 75°
2026-05-01 13:42 45.85363 11.96962 38388 ft 426 kts 75°
2026-05-01 13:43 45.86463 12.05307 38377 ft 425 kts 75°
2026-05-01 13:43 45.87559 12.13629 38375 ft 424 kts 75°
2026-05-01 13:44 45.88650 12.21883 38373 ft 424 kts 75°
2026-05-01 13:44 45.89739 12.30197 38368 ft 424 kts 75°
2026-05-01 13:45 45.90811 12.38468 38361 ft 419 kts 75°
2026-05-01 13:45 45.91869 12.46676 38362 ft 417 kts 75°
2026-05-01 13:46 45.92917 12.54815 38363 ft 417 kts 75°
2026-05-01 13:46 45.93969 12.63003 38362 ft 417 kts 75°
2026-05-01 13:47 45.95015 12.71180 38355 ft 416 kts 76°
2026-05-01 13:47 45.95871 12.77981 38343 ft 413 kts 75°
2026-05-01 13:48 45.97042 12.87380 38340 ft 410 kts 75°
2026-05-01 13:48 45.98053 12.95454 38344 ft 410 kts 75°
2026-05-01 13:49 45.98888 13.02164 38335 ft 410 kts 76°
2026-05-01 13:49 45.99879 13.10245 38335 ft 411 kts 76°
2026-05-01 13:50 46.00875 13.18338 38377 ft 411 kts 75°
2026-05-01 13:50 46.01858 13.26423 38370 ft 410 kts 75°
2026-05-01 13:51 46.02826 13.34426 38359 ft 409 kts 75°
2026-05-01 13:51 46.03756 13.42128 38359 ft 408 kts 75°
2026-05-01 13:52 46.04719 13.50178 38354 ft 408 kts 76°
2026-05-01 13:52 46.05599 13.58252 38350 ft 409 kts 78°
2026-05-01 13:53 46.06174 13.66419 38363 ft 411 kts 80°
2026-05-01 13:53 46.06909 13.78649 38356 ft 410 kts 79°
2026-05-01 13:54 46.07448 13.86808 38350 ft 409 kts 79°
2026-05-01 13:54 46.08004 13.94957 38342 ft 409 kts 79°
2026-05-01 13:55 46.08548 14.03110 38368 ft 409 kts 79°
2026-05-01 13:55 46.09085 14.11281 38354 ft 410 kts 79°
2026-05-01 13:56 46.09604 14.19415 38343 ft 410 kts 80°
2026-05-01 13:56 46.10126 14.27605 38343 ft 410 kts 80°
2026-05-01 13:57 46.10644 14.35791 38343 ft 411 kts 80°
2026-05-01 13:57 46.11160 14.43991 38346 ft 411 kts 80°
2026-05-01 13:58 46.11667 14.52158 38344 ft 408 kts 80°
2026-05-01 13:58 46.12158 14.60247 38341 ft 408 kts 80°
2026-05-01 13:59 46.12650 14.68397 38345 ft 408 kts 80°
2026-05-01 13:59 46.13141 14.76559 38348 ft 409 kts 80°
2026-05-01 14:00 46.13621 14.84732 38351 ft 409 kts 80°
2026-05-01 14:00 46.14094 14.92858 38358 ft 409 kts 80°
2026-05-01 14:01 46.14326 14.96924 37913 ft 406 kts 79°
2026-05-01 14:01 46.14557 15.00977 37429 ft 403 kts 80°
2026-05-01 14:01 46.14781 15.05000 37314 ft 402 kts 80°
2026-05-01 14:01 46.15008 15.09028 37344 ft 404 kts 80°
2026-05-01 14:02 46.15465 15.17092 37337 ft 404 kts 80°
2026-05-01 14:02 46.15914 15.25175 37339 ft 404 kts 80°
2026-05-01 14:03 46.16357 15.33251 37340 ft 403 kts 80°
2026-05-01 14:03 46.16786 15.41255 37339 ft 403 kts 80°
2026-05-01 14:04 46.17213 15.49318 37341 ft 403 kts 80°
2026-05-01 14:04 46.17639 15.57388 37347 ft 404 kts 80°
2026-05-01 14:05 46.18064 15.65471 37355 ft 404 kts 80°
2026-05-01 14:05 46.18477 15.73507 37361 ft 404 kts 80°
2026-05-01 14:06 46.18879 15.81605 37365 ft 404 kts 80°
2026-05-01 14:06 46.19276 15.89698 37368 ft 404 kts 80°
2026-05-01 14:07 46.19676 15.97785 37363 ft 404 kts 80°
2026-05-01 14:08 46.20255 16.09871 37365 ft 404 kts 81°
2026-05-01 14:08 46.20635 16.17973 37391 ft 404 kts 80°
2026-05-01 14:09 46.21009 16.26065 37380 ft 404 kts 81°
2026-05-01 14:09 46.21379 16.34152 37365 ft 404 kts 81°
2026-05-01 14:10 46.21740 16.42189 37364 ft 404 kts 81°
2026-05-01 14:10 46.22098 16.50277 37363 ft 404 kts 81°
2026-05-01 14:11 46.22455 16.58367 37399 ft 404 kts 81°
2026-05-01 14:11 46.22974 16.70463 37380 ft 404 kts 81°
2026-05-01 14:12 46.23310 16.78564 37374 ft 404 kts 81°
2026-05-01 14:12 46.23642 16.86658 37371 ft 404 kts 81°
2026-05-01 14:13 46.23969 16.94757 37366 ft 404 kts 81°
2026-05-01 14:13 46.24374 17.02781 37397 ft 402 kts 79°
2026-05-01 14:14 46.24951 17.10812 37385 ft 402 kts 78°
2026-05-01 14:14 46.25541 17.18833 37380 ft 402 kts 78°
2026-05-01 14:15 46.26084 17.26870 37375 ft 402 kts 79°
2026-05-01 14:15 46.26593 17.34859 37374 ft 402 kts 79°
2026-05-01 14:16 46.27098 17.42908 37368 ft 402 kts 79°
2026-05-01 14:16 46.27605 17.50941 37378 ft 401 kts 79°
2026-05-01 14:17 46.28111 17.58960 37371 ft 400 kts 79°
2026-05-01 14:17 46.28605 17.66925 37366 ft 400 kts 79°
2026-05-01 14:18 46.29095 17.74945 37358 ft 401 kts 79°
2026-05-01 14:18 46.29500 17.81612 37358 ft 401 kts 79°
2026-05-01 14:19 46.30066 17.90990 37367 ft 401 kts 79°
2026-05-01 14:19 46.30533 17.98967 37365 ft 401 kts 79°
2026-05-01 14:20 46.31234 18.11030 37355 ft 401 kts 79°
2026-05-01 14:21 46.31701 18.19071 37354 ft 401 kts 79°
2026-05-01 14:21 46.32150 18.27123 37351 ft 402 kts 79°
2026-05-01 14:22 46.32815 18.39145 37374 ft 401 kts 79°
2026-05-01 14:22 46.33260 18.47192 37363 ft 401 kts 79°
2026-05-01 14:23 46.33702 18.55230 37355 ft 401 kts 80°
2026-05-01 14:23 46.34132 18.63274 37351 ft 401 kts 80°
2026-05-01 14:24 46.34555 18.71263 37346 ft 401 kts 80°
2026-05-01 14:24 46.34973 18.79303 37374 ft 401 kts 80°
2026-05-01 14:25 46.35384 18.87349 37362 ft 401 kts 80°
2026-05-01 14:25 46.35792 18.95332 37351 ft 400 kts 80°
2026-05-01 14:26 46.36388 19.07391 37344 ft 400 kts 80°
2026-05-01 14:27 46.36779 19.15434 37338 ft 400 kts 80°
2026-05-01 14:27 46.37168 19.23476 37361 ft 401 kts 80°
2026-05-01 14:28 46.37734 19.35495 37341 ft 401 kts 80°
2026-05-01 14:28 46.38110 19.43548 37338 ft 401 kts 80°
2026-05-01 14:29 46.38483 19.51606 37335 ft 401 kts 80°
2026-05-01 14:30 46.39191 19.67677 37359 ft 401 kts 81°
2026-05-01 14:31 46.39713 19.79793 37345 ft 402 kts 81°
2026-05-01 14:31 46.40124 19.87858 37337 ft 401 kts 79°
2026-05-01 14:32 46.40722 19.95821 37336 ft 400 kts 78°
2026-05-01 14:32 46.41347 20.03826 37329 ft 400 kts 78°
2026-05-01 14:33 46.41934 20.11858 37327 ft 401 kts 78°
2026-05-01 14:33 46.42488 20.19894 37319 ft 401 kts 79°
2026-05-01 14:34 46.43034 20.27926 37321 ft 400 kts 79°
2026-05-01 14:34 46.43579 20.35905 37322 ft 400 kts 79°
2026-05-01 14:35 46.44117 20.43942 37324 ft 401 kts 79°
2026-05-01 14:35 46.44650 20.51980 37352 ft 400 kts 79°
2026-05-01 14:36 46.45183 20.60024 37339 ft 401 kts 79°
2026-05-01 14:36 46.45707 20.68019 37330 ft 401 kts 79°
2026-05-01 14:37 46.46228 20.76074 37319 ft 401 kts 79°
2026-05-01 14:37 46.46745 20.84136 37318 ft 401 kts 79°
2026-05-01 14:38 46.47247 20.92193 37316 ft 401 kts 79°
2026-05-01 14:38 46.47749 21.00210 37334 ft 402 kts 79°
2026-05-01 14:39 46.48245 21.08292 37316 ft 402 kts 79°
2026-05-01 14:39 46.48735 21.16388 37311 ft 403 kts 79°
2026-05-01 14:40 46.49225 21.24495 37313 ft 403 kts 79°
2026-05-01 14:40 46.49810 21.32571 37306 ft 402 kts 77°
2026-05-01 14:41 46.50585 21.40540 37303 ft 401 kts 76°
2026-05-01 14:41 46.51383 21.48564 37314 ft 402 kts 77°
2026-05-01 14:42 46.52137 21.56625 37296 ft 403 kts 77°
2026-05-01 14:42 46.52860 21.64712 37291 ft 404 kts 78°
2026-05-01 14:43 46.53581 21.72759 37289 ft 405 kts 78°
2026-05-01 14:43 46.54305 21.80867 37288 ft 405 kts 78°
2026-05-01 14:44 46.54981 21.88541 37293 ft 405 kts 78°
2026-05-01 14:44 46.56047 22.00663 37294 ft 406 kts 78°
2026-05-01 14:45 46.57099 22.12885 37287 ft 407 kts 78°
2026-05-01 14:46 46.57794 22.21040 37275 ft 407 kts 78°
2026-05-01 14:46 46.58832 22.33243 37276 ft 407 kts 78°
2026-05-01 14:47 46.59517 22.41423 37280 ft 409 kts 79°
2026-05-01 14:48 46.60539 22.53767 37261 ft 411 kts 79°
2026-05-01 14:48 46.61551 22.66113 37257 ft 412 kts 79°
2026-05-01 14:49 46.62873 22.82706 37272 ft 413 kts 79°
2026-05-01 14:50 46.64194 22.99311 37275 ft 416 kts 79°
2026-05-01 14:51 46.65178 23.11872 37276 ft 417 kts 79°
2026-05-01 14:52 46.66127 23.24411 37277 ft 418 kts 80°
2026-05-01 14:53 46.67081 23.37024 37298 ft 418 kts 80°
2026-05-01 14:53 46.67711 23.45442 37296 ft 419 kts 80°
2026-05-01 14:54 46.68324 23.53820 37292 ft 419 kts 80°
2026-05-01 14:54 46.68937 23.62255 37292 ft 419 kts 80°
2026-05-01 14:55 46.69545 23.70698 37292 ft 419 kts 80°
2026-05-01 14:55 46.70150 23.79138 37314 ft 419 kts 80°
2026-05-01 14:56 46.70750 23.87539 37292 ft 420 kts 81°
2026-05-01 14:56 46.71342 23.96014 37287 ft 421 kts 81°
2026-05-01 14:57 46.71923 24.04503 37262 ft 421 kts 81°
2026-05-01 14:57 46.72792 24.17239 37266 ft 421 kts 81°
2026-05-01 14:58 46.73360 24.25670 37288 ft 421 kts 81°
2026-05-01 14:58 46.73921 24.34179 37264 ft 422 kts 81°
2026-05-01 14:59 46.74480 24.42696 37264 ft 423 kts 81°
2026-05-01 14:59 46.75044 24.51232 37263 ft 423 kts 81°
2026-05-01 15:00 46.75865 24.63991 37258 ft 423 kts 81°
2026-05-01 15:01 46.76399 24.72545 37258 ft 423 kts 81°
2026-05-01 15:01 46.76929 24.81090 37260 ft 423 kts 81°
2026-05-01 15:02 46.77456 24.89637 37265 ft 423 kts 81°
2026-05-01 15:02 46.77973 24.98115 37264 ft 422 kts 81°
2026-05-01 15:03 46.78487 25.06647 37262 ft 422 kts 81°
2026-05-01 15:03 46.78991 25.15173 37265 ft 422 kts 81°
2026-05-01 15:04 46.79493 25.23648 37271 ft 423 kts 82°
2026-05-01 15:04 46.79990 25.32206 37258 ft 424 kts 82°
2026-05-01 15:05 46.80482 25.40784 37261 ft 425 kts 82°
2026-05-01 15:05 46.80967 25.49383 37266 ft 425 kts 82°
2026-05-01 15:06 46.81437 25.57934 37270 ft 426 kts 82°
2026-05-01 15:06 46.81908 25.66546 37274 ft 426 kts 82°
2026-05-01 15:07 46.82372 25.75173 37282 ft 427 kts 82°
2026-05-01 15:07 46.82834 25.83833 36730 ft 427 kts 82°
2026-05-01 15:07 46.83060 25.88141 36293 ft 423 kts 82°
2026-05-01 15:08 46.83281 25.92410 35839 ft 421 kts 82°
2026-05-01 15:08 46.83499 25.96597 35391 ft 418 kts 82°
2026-05-01 15:08 46.83720 26.00820 34976 ft 414 kts 82°
2026-05-01 15:08 46.83935 26.04991 34567 ft 411 kts 82°
2026-05-01 15:09 46.84148 26.09148 34077 ft 409 kts 82°
2026-05-01 15:09 46.84359 26.13275 33596 ft 406 kts 82°
2026-05-01 15:09 46.84565 26.17359 33159 ft 402 kts 82°
2026-05-01 15:09 46.84766 26.21411 32684 ft 398 kts 82°
2026-05-01 15:10 46.84962 26.25426 32220 ft 394 kts 82°
2026-05-01 15:10 46.85344 26.33278 31344 ft 386 kts 81°
2026-05-01 15:10 46.85534 26.37179 30911 ft 382 kts 81°
2026-05-01 15:11 46.85717 26.41033 30485 ft 379 kts 81°
2026-05-01 15:11 46.86073 26.48617 29613 ft 369 kts 81°
2026-05-01 15:11 46.86247 26.52336 29215 ft 364 kts 81°
2026-05-01 15:12 46.86418 26.55995 28830 ft 359 kts 81°
2026-05-01 15:12 46.86753 26.63145 28087 ft 351 kts 81°
2026-05-01 15:12 46.86919 26.66685 27713 ft 348 kts 81°
2026-05-01 15:13 46.87388 26.77095 26648 ft 337 kts 81°
2026-05-01 15:14 46.87691 26.83861 25929 ft 331 kts 81°
2026-05-01 15:14 46.87838 26.87201 25568 ft 328 kts 81°
2026-05-01 15:14 46.88123 26.93775 24830 ft 325 kts 81°
2026-05-01 15:15 46.88403 27.00339 24083 ft 322 kts 81°
2026-05-01 15:15 46.88676 27.06857 23266 ft 319 kts 81°
2026-05-01 15:16 46.88947 27.13294 22507 ft 316 kts 81°
2026-05-01 15:16 46.89214 27.19626 21733 ft 313 kts 81°
2026-05-01 15:17 46.89471 27.25960 20966 ft 311 kts 82°
2026-05-01 15:18 46.89834 27.34939 19870 ft 309 kts 82°
2026-05-01 15:18 46.89955 27.38073 19491 ft 309 kts 82°
2026-05-01 15:19 46.90301 27.47254 18335 ft 295 kts 82°
2026-05-01 15:19 46.90534 27.53210 17593 ft 292 kts 82°
2026-05-01 15:19 46.90646 27.56121 17231 ft 291 kts 82°
2026-05-01 15:20 46.90864 27.62011 16508 ft 289 kts 82°
2026-05-01 15:20 46.90974 27.64945 16144 ft 289 kts 82°
2026-05-01 15:20 46.91085 27.67868 15784 ft 287 kts 83°
2026-05-01 15:21 46.91193 27.70776 15426 ft 286 kts 83°
2026-05-01 15:21 46.91301 27.73710 14711 ft 290 kts 83°
2026-05-01 15:21 46.91402 27.76558 14600 ft 273 kts 83°
2026-05-01 15:21 46.91503 27.79379 14349 ft 281 kts 83°
2026-05-01 15:22 46.91701 27.85059 13632 ft 280 kts 83°
2026-05-01 15:22 46.91799 27.87896 13281 ft 279 kts 83°
2026-05-01 15:22 46.91898 27.90716 12935 ft 277 kts 83°
2026-05-01 15:23 46.91997 27.93514 12585 ft 274 kts 83°
2026-05-01 15:23 46.92094 27.96289 12240 ft 272 kts 83°
2026-05-01 15:23 46.92187 27.99046 11899 ft 270 kts 83°
2026-05-01 15:23 46.92279 28.01771 11560 ft 268 kts 83°
2026-05-01 15:24 46.92369 28.04485 11217 ft 263 kts 83°
2026-05-01 15:24 46.92457 28.07138 10890 ft 259 kts 83°
2026-05-01 15:24 46.92612 28.09715 10571 ft 256 kts 75°
2026-05-01 15:24 46.93109 28.12172 10237 ft 250 kts 63°
2026-05-01 15:25 46.93868 28.14443 9883 ft 248 kts 60°
2026-05-01 15:25 46.94633 28.16700 9541 ft 247 kts 60°
2026-05-01 15:25 46.95392 28.18956 9200 ft 247 kts 60°
2026-05-01 15:25 46.96146 28.21209 8883 ft 246 kts 60°
2026-05-01 15:26 46.96898 28.23462 8554 ft 246 kts 61°
2026-05-01 15:26 46.97647 28.25706 8230 ft 245 kts 61°
2026-05-01 15:26 46.98392 28.27945 7894 ft 244 kts 61°
2026-05-01 15:26 46.99127 28.30153 7573 ft 244 kts 61°
2026-05-01 15:27 46.99867 28.32384 7246 ft 243 kts 61°
2026-05-01 15:27 47.00611 28.34623 6519 ft 250 kts 63°
2026-05-01 15:27 47.01133 28.37153 5447 ft 270 kts 80°
2026-05-01 15:28 47.00083 28.42640 3403 ft 293 kts 115°
2026-05-01 15:28 46.99157 28.45209 3116 ft 275 kts 115°
2026-05-01 15:28 46.98296 28.47575 3000 ft 252 kts 115°
2026-05-01 15:29 46.96814 28.51643 3004 ft 211 kts 114°
2026-05-01 15:29 46.96129 28.53530 3009 ft 209 kts 115°
2026-05-01 15:29 46.94817 28.57133 3015 ft 197 kts 114°
2026-05-01 15:30 46.93542 28.60637 3009 ft 195 kts 115°
2026-05-01 15:31 46.92253 28.67623 3015 ft 153 kts 85°
2026-05-01 15:31 46.92297 28.70607 3017 ft 138 kts 84°
2026-05-01 15:32 46.92357 28.73405 2801 ft 137 kts 82°
2026-05-01 15:32 46.92418 28.76175 2456 ft 136 kts 82°
2026-05-01 15:33 46.92508 28.80282 1901 ft 135 kts 83°
2026-05-01 15:34 46.92595 28.84365 1377 ft 134 kts 85°